Location: L�Ave Maria
(50.7161°N, 1.5911°E)
Time: 13:19:48
(UTC+00:00)

NOSS 3-4 (A) - Pass Details

Date: 10 July 2020
Orbit: 892 x 1320 km, 63.4° (Epoch: 12 July)

Event Time Altitude Azimuth Distance (km) Brightness Sun altitude
Rises 22:01:34 0° 314° (NW) 3,816 8.2 -12.7°
Reaches altitude 10° 22:04:09 10° 310° (NW) 2,919 7.1 -12.9°
Maximum altitude 22:10:50 51° 237° (WSW) 1,427 4.3 -13.4°
Enters shadow 22:16:34 17° 169° (SSE) 2,664 5.2 -13.8°
